Ely, MN

2:55 AM CDT on September 28, 2016 (GMT -0500)
Ely Municipal

Weather History for KELO - November, 2011

Change the Weather History Date:

Sunday, November 27, 2011

  Actual Average Record
Temperature  
Mean Temperature 24 °F -  
Max Temperature 26 °F 29 °F 57 °F (1998)
Min Temperature 21 °F 15 °F -20 °F (2014)
Degree Days  
Heating Degree Days 42    
Moisture  
Dew Point 19 °F    
Average Humidity 86    
Maximum Humidity 93    
Minimum Humidity 80    
Precipitation  
Precipitation 0.00 in - - ()
Sea Level Pressure  
Sea Level Pressure 30.08 in    
Wind  
Wind Speed 9 mph (NW)    
Max Wind Speed 15 mph    
Max Gust Speed 24 mph    
Visibility 10 miles    
Events Snow    
Averages and records for this station are not official NWS values.
T = Trace of Precipitation, MM = Missing Value Source: NWS Daily Summary

Daily Weather History Graph

Daily Weather History Graph

Search for Another Location

Airport or City:

Trip Planner

Search our weather history database for the weather conditions in past years. The results will help you decide how hot, cold, wet, or windy it might be!

Date:

Astronomy

Nov. 27, 2011 Rise Set
Actual Time 7:29 AM CST 4:19 PM CST
Civil Twilight 6:54 AM CST 4:54 PM CST
Nautical Twilight 6:16 AM CST 5:32 PM CST
Astronomical Twilight 5:39 AM CST 6:10 PM CST
Moon 9:57 AM CST (11/27) 6:57 PM CST (11/27)
Length of Visible Light 9h 59m
Length of Day
8h 49m
Waxing Crescent, 8% of the Moon is Illuminated
Nov 27
Waxing Crescent
Dec 2
First Quarter
Dec 10
Full
Dec 17
Last Quarter
Dec 24
New

Hourly Weather History & Observations

Time (CST) Temp. Windchill Dew Point Humidity Pressure Visibility Wind Dir Wind Speed Gust Speed Precip Events Conditions
12:12 AM 26.6 °F 16.2 °F 23.0 °F 86% 29.98 in 10.0 mi NW 11.5 mph 20.7 mph N/A   Overcast
12:32 AM 26.6 °F 15.2 °F 23.0 °F 86% 29.98 in 10.0 mi NW 13.8 mph 19.6 mph N/A   Overcast
12:53 AM 26.6 °F 15.2 °F 23.0 °F 86% 29.98 in 10.0 mi NW 13.8 mph 20.7 mph N/A   Overcast
1:12 AM 24.8 °F 14.0 °F 21.2 °F 86% 29.98 in 10.0 mi NW 11.5 mph 20.7 mph N/A   Overcast
1:32 AM 24.8 °F 14.0 °F 23.0 °F 93% 29.99 in 10.0 mi NNW 11.5 mph 24.2 mph N/A   Overcast
1:53 AM 24.8 °F 14.6 °F 21.2 °F 86% 30.00 in 7.0 mi NW 10.4 mph 18.4 mph N/A   Overcast
2:12 AM 24.8 °F 16.9 °F 23.0 °F 93% 30.01 in 7.0 mi North 6.9 mph - N/A   Overcast
2:32 AM 24.8 °F 12.9 °F 21.2 °F 86% 30.01 in 10.0 mi NNW 13.8 mph 19.6 mph N/A   Overcast
2:53 AM 24.8 °F 14.6 °F 21.2 °F 86% 30.01 in 10.0 mi NNW 10.4 mph 17.3 mph N/A   Overcast
3:13 AM 24.8 °F 12.4 °F 21.2 °F 86% 30.02 in 7.0 mi NNW 15.0 mph 21.9 mph N/A   Overcast
3:32 AM 24.8 °F 14.6 °F 21.2 °F 86% 30.02 in 10.0 mi NNW 10.4 mph 20.7 mph N/A   Overcast
3:53 AM 24.8 °F 15.3 °F 21.2 °F 86% 30.03 in 10.0 mi NNW 9.2 mph 21.9 mph N/A   Overcast
4:12 AM 24.8 °F 15.3 °F 21.2 °F 86% 30.04 in 7.0 mi NNW 9.2 mph 19.6 mph N/A   Overcast
4:33 AM 24.8 °F 16.9 °F 21.2 °F 86% 30.04 in 10.0 mi NNW 6.9 mph 21.9 mph N/A   Overcast
4:53 AM 24.8 °F 16.9 °F 21.2 °F 86% 30.05 in 10.0 mi NNW 6.9 mph 16.1 mph N/A   Overcast
5:12 AM 24.8 °F 17.9 °F 21.2 °F 86% 30.05 in 7.0 mi NNW 5.8 mph - N/A   Overcast
5:33 AM 24.8 °F 19.1 °F 21.2 °F 86% 30.05 in 10.0 mi NNW 4.6 mph - N/A   Overcast
6:13 AM 24.8 °F 14.6 °F 21.2 °F 86% 30.07 in 5.0 mi NNW 10.4 mph 23.0 mph N/A   Overcast
6:33 AM 24.8 °F 14.0 °F 21.2 °F 86% 30.08 in 5.0 mi NW 11.5 mph 18.4 mph N/A Snow Light Snow
6:53 AM 24.8 °F 13.4 °F 19.4 °F 80% 30.09 in 10.0 mi NNW 12.7 mph 20.7 mph N/A   Overcast
7:13 AM 23.0 °F 14.7 °F 19.4 °F 86% 30.09 in 10.0 mi NNW 6.9 mph - N/A   Overcast
7:33 AM 23.0 °F 11.7 °F 19.4 °F 86% 30.09 in 10.0 mi NW 11.5 mph 19.6 mph N/A   Overcast
7:52 AM 23.0 °F 11.7 °F 19.4 °F 86% 30.10 in 10.0 mi NW 11.5 mph 18.4 mph N/A   Overcast
8:12 AM 23.0 °F 13.9 °F 19.4 °F 86% 30.10 in 10.0 mi NW 8.1 mph 19.6 mph N/A   Overcast
8:33 AM 23.0 °F 14.7 °F 19.4 °F 86% 30.11 in 10.0 mi NNW 6.9 mph 16.1 mph N/A   Overcast
8:53 AM 23.0 °F 13.1 °F 19.4 °F 86% 30.10 in 10.0 mi NNW 9.2 mph - N/A   Overcast
9:12 AM 23.0 °F 12.4 °F 19.4 °F 86% 30.10 in 10.0 mi NNW 10.4 mph 18.4 mph N/A   Overcast
9:33 AM 23.0 °F 13.1 °F 19.4 °F 86% 30.10 in 10.0 mi NNW 9.2 mph - N/A   Overcast
9:52 AM 23.0 °F 13.1 °F 19.4 °F 86% 30.11 in 10.0 mi NW 9.2 mph - N/A   Overcast
10:12 AM 23.0 °F 13.1 °F 17.6 °F 80% 30.11 in 10.0 mi NNW 9.2 mph 17.3 mph N/A   Overcast
10:33 AM 21.2 °F 10.9 °F 17.6 °F 86% 30.12 in 10.0 mi NNW 9.2 mph 18.4 mph N/A   Overcast
10:53 AM 21.2 °F 9.5 °F 17.6 °F 86% 30.12 in 10.0 mi NNW 11.5 mph 16.1 mph N/A   Overcast
11:12 AM 23.0 °F 17.0 °F 17.6 °F 80% 30.12 in 10.0 mi NNW 4.6 mph 17.3 mph N/A   Overcast
11:33 AM 23.0 °F 14.7 °F 17.6 °F 80% 30.12 in 10.0 mi NNW 6.9 mph - N/A   Overcast
11:52 AM 23.0 °F 13.9 °F 19.4 °F 86% 30.11 in 10.0 mi NW 8.1 mph - N/A   Overcast
12:12 PM 23.0 °F 13.9 °F 19.4 °F 86% 30.12 in 10.0 mi NW 8.1 mph - N/A   Overcast
12:33 PM 23.0 °F 11.7 °F 17.6 °F 80% 30.11 in 10.0 mi WNW 11.5 mph - N/A   Overcast
12:53 PM 23.0 °F 13.9 °F 17.6 °F 80% 30.11 in 10.0 mi WNW 8.1 mph - N/A   Overcast
1:13 PM 21.2 °F 13.6 °F 17.6 °F 86% 30.12 in 10.0 mi NNW 5.8 mph - N/A   Overcast
1:33 PM 21.2 °F 13.6 °F 17.6 °F 86% 30.12 in 10.0 mi NW 5.8 mph - N/A   Overcast
1:52 PM 21.2 °F 13.6 °F 17.6 °F 86% 30.12 in 10.0 mi WNW 5.8 mph - N/A   Overcast
2:13 PM 21.2 °F 11.7 °F 17.6 °F 86% 30.13 in 10.0 mi NW 8.1 mph 16.1 mph N/A   Overcast
2:33 PM 21.2 °F 12.6 °F 17.6 °F 86% 30.12 in 10.0 mi NNW 6.9 mph - N/A   Overcast
2:52 PM 21.2 °F 11.7 °F 17.6 °F 86% 30.12 in 10.0 mi NW 8.1 mph - N/A   Overcast
3:13 PM 21.2 °F 13.6 °F 17.6 °F 86% 30.12 in 10.0 mi NNW 5.8 mph - N/A   Overcast
3:33 PM 21.2 °F 16.4 °F 17.6 °F 86% 30.12 in 10.0 mi North 3.5 mph - N/A   Overcast
3:52 PM 21.2 °F 14.9 °F 17.6 °F 86% 30.11 in 10.0 mi North 4.6 mph - N/A   Overcast
4:13 PM 21.2 °F 14.9 °F 17.6 °F 86% 30.11 in 10.0 mi NNW 4.6 mph - N/A   Overcast
4:32 PM 21.2 °F 14.9 °F 17.6 °F 86% 30.11 in 10.0 mi NW 4.6 mph - N/A   Overcast
4:53 PM 21.2 °F 14.9 °F 17.6 °F 86% 30.11 in 10.0 mi NNW 4.6 mph - N/A   Overcast
5:12 PM 21.2 °F - 17.6 °F 86% 30.11 in 10.0 mi Calm Calm - N/A   Overcast
5:32 PM 21.2 °F 13.6 °F 17.6 °F 86% 30.12 in 10.0 mi WNW 5.8 mph - N/A   Overcast
5:53 PM 21.2 °F 14.9 °F 17.6 °F 86% 30.13 in 10.0 mi NW 4.6 mph - N/A   Overcast
6:12 PM 21.2 °F 13.6 °F 17.6 °F 86% 30.13 in 10.0 mi NNW 5.8 mph - N/A   Overcast
6:32 PM 21.2 °F 14.9 °F 17.6 °F 86% 30.12 in 10.0 mi WNW 4.6 mph - N/A   Overcast
6:53 PM 21.2 °F - 19.4 °F 93% 30.10 in 10.0 mi Calm Calm - N/A   Overcast
7:12 PM 21.2 °F - 17.6 °F 86% 30.10 in 10.0 mi Calm Calm - N/A   Overcast
7:32 PM 21.2 °F - 17.6 °F 86% 30.11 in 10.0 mi Calm Calm - N/A   Overcast
7:53 PM 21.2 °F 13.6 °F 19.4 °F 93% 30.11 in 10.0 mi West 5.8 mph - N/A   Overcast
8:13 PM 21.2 °F - 17.6 °F 86% 30.07 in 10.0 mi Calm Calm - N/A   Overcast
8:32 PM 21.2 °F 16.4 °F 17.6 °F 86% 30.06 in 10.0 mi SSE 3.5 mph - N/A   Overcast
8:53 PM 21.2 °F - 17.6 °F 86% 30.08 in 10.0 mi Calm Calm - N/A   Overcast
9:12 PM 21.2 °F - 19.4 °F 93% 30.07 in 10.0 mi Calm Calm - N/A   Overcast
9:33 PM 21.2 °F 16.4 °F 19.4 °F 93% 30.07 in 10.0 mi SSW 3.5 mph - N/A   Overcast
9:53 PM 21.2 °F 14.9 °F 19.4 °F 93% 30.07 in 10.0 mi SSW 4.6 mph - N/A   Overcast
10:13 PM 21.2 °F 16.4 °F 19.4 °F 93% 30.07 in 10.0 mi WSW 3.5 mph - N/A   Overcast
10:33 PM 21.2 °F 13.6 °F 19.4 °F 93% 30.08 in 10.0 mi SW 5.8 mph - N/A   Overcast
10:53 PM 21.2 °F 13.6 °F 19.4 °F 93% 30.06 in 10.0 mi SSW 5.8 mph - N/A   Overcast
11:12 PM 21.2 °F 13.6 °F 19.4 °F 93% 30.06 in 10.0 mi SW 5.8 mph - N/A   Overcast
11:33 PM 21.2 °F 11.7 °F 19.4 °F 93% 30.06 in 10.0 mi SW 8.1 mph - N/A   Overcast
11:52 PM 21.2 °F 14.9 °F 19.4 °F 93% 30.05 in 10.0 mi SW 4.6 mph - N/A   Overcast